Theta_e
346 347 348 350 349 349 351 352 352 352 352 351 351 352 351 351 351 350 351 350 349 349 351 350 347 345 346 345 344 343 343 343 344 345 345 345 344 345 345 345 344 344 343 342 341 341 340 340 339 339 337 335 334 334 334 332 332 332 333 332 332 332
346 347 347 346 349 347 353 351 352 353 353 353 352 352 353 352 350 352 350 350 350 347 346 348 348 344 344 344 344 343 343 343 343 344 344 345 346 346 345 345 344 344 343 341 341 342 342 340 339 338 337 335 336 334 335 333 333 332 332 333 333 332
345 348 348 348 348 351 349 350 350 351 349 352 352 352 352 351 350 349 349 350 348 348 345 348 349 346 344 343 343 343 343 344 344 344 345 346 346 346 345 344 344 343 342 342 345 342 343 340 340 339 335 339 335 334 334 333 333 334 333 333 334 333
346 348 349 348 349 350 349 348 350 352 352 355 353 351 352 353 352 351 349 350 348 347 347 350 345 345 345 345 344 344 343 343 343 344 344 345 345 346 345 344 344 344 343 344 344 341 340 338 339 339 337 336 334 334 335 335 332 333 335 333 332 333
348 348 348 348 348 347 348 348 349 351 352 354 353 352 352 354 354 351 350 350 347 348 347 349 350 349 344 344 342 343 344 343 343 342 343 343 341 340 344 342 342 344 343 342 341 341 339 337 339 337 337 336 335 335 335 335 333 332 334 334 333 331
348 348 349 349 349 348 347 347 349 349 351 352 352 351 352 352 353 352 349 349 348 350 347 346 348 348 347 344 342 342 342 343 341 341 344 343 343 345 343 343 343 342 342 343 342 342 340 338 336 336 336 336 335 336 335 334 334 334 336 335 333 331
348 347 349 350 348 348 345 348 348 349 347 347 349 349 348 350 352 352 350 351 347 346 346 344 345 344 344 344 342 342 343 342 341 341 344 342 343 345 344 343 342 343 343 340 340 340 339 337 338 336 337 335 335 336 335 335 334 334 335 335 332 331
349 349 350 350 348 344 344 346 347 348 348 345 345 347 347 349 353 352 352 351 350 347 344 342 344 343 342 343 341 343 344 340 340 340 343 343 342 342 344 343 344 342 340 341 339 339 338 337 339 340 338 337 336 336 336 336 335 335 335 336 334 332
350 349 349 350 347 346 344 345 347 347 347 346 347 347 347 351 352 352 353 352 352 349 343 344 343 343 344 343 342 342 340 340 340 340 342 341 342 342 343 343 344 343 346 344 342 342 339 338 340 341 339 338 337 336 336 335 336 334 334 335 335 332
350 350 350 350 348 347 345 344 345 346 344 347 345 347 349 348 351 350 351 352 350 349 346 341 342 344 344 344 342 343 343 340 342 340 342 343 342 343 343 343 344 343 342 344 344 343 340 338 338 340 339 339 338 338 338 336 335 334 335 336 337 333
350 350 351 349 348 346 345 344 344 342 344 344 346 347 346 349 349 351 351 352 350 351 350 346 344 343 345 343 344 344 342 342 341 340 342 342 345 345 346 345 345 344 343 343 342 344 342 341 340 339 340 340 340 341 340 340 338 337 335 336 336 338
351 350 350 349 349 346 345 345 345 343 342 345 347 346 346 349 348 350 351 351 351 351 351 349 346 342 345 343 343 345 345 343 341 341 344 344 344 346 345 344 346 347 347 345 343 343 345 342 339 339 339 339 341 341 339 340 339 338 338 338 338 338
351 350 349 348 348 348 348 345 345 344 344 344 347 347 346 348 350 352 353 352 352 351 352 350 350 345 344 344 343 346 345 346 346 346 347 346 346 347 347 347 347 347 345 344 344 345 343 345 342 341 340 341 342 340 341 340 340 339 338 339 340 339
350 349 349 348 349 347 348 346 345 345 346 345 345 344 345 348 350 349 353 353 353 352 351 351 350 348 344 343 345 344 345 344 346 349 348 349 346 346 345 345 344 343 340 342 341 343 342 342 340 341 341 340 342 343 341 342 341 341 341 341 340 340
349 349 347 348 348 348 348 348 345 346 346 346 345 344 346 347 349 348 348 352 352 353 352 350 351 351 347 345 344 344 344 344 347 348 346 347 348 347 347 345 343 340 342 341 340 340 341 343 341 338 340 343 341 341 343 341 342 342 341 343 342 341
347 347 348 349 349 349 349 349 347 345 347 346 343 344 346 346 344 345 346 346 352 353 351 351 351 351 351 347 342 342 343 347 348 348 347 347 348 346 346 346 346 344 340 338 339 341 343 342 342 340 342 342 341 341 342 343 343 343 343 343 343 342
345 345 346 348 349 348 349 348 347 347 347 346 343 343 344 345 343 342 345 345 348 352 352 352 352 352 351 350 345 343 342 344 350 347 347 348 347 346 347 343 346 346 345 343 336 337 341 344 342 342 343 341 342 343 344 342 343 344 342 344 344 342
343 344 344 345 347 348 345 347 347 348 346 344 345 343 343 341 337 335 338 341 345 349 352 351 351 350 351 350 348 345 344 346 346 344 346 347 345 346 348 348 345 347 345 342 339 339 341 343 341 341 343 344 345 344 344 344 345 342 343 342 343 343
344 343 343 344 345 346 348 348 348 348 345 344 345 344 343 340 338 336 333 340 343 344 347 351 351 351 351 349 349 349 348 348 345 343 346 346 346 346 348 349 347 346 349 344 341 342 344 345 344 343 343 345 346 347 346 346 347 345 344 345 343 342
341 343 343 344 344 344 344 343 343 344 342 342 344 343 344 341 341 341 342 340 341 343 342 347 351 352 351 350 348 349 350 350 348 346 345 344 343 343 347 350 349 346 346 344 344 344 345 345 342 342 341 342 344 346 347 346 347 348 347 347 346 346
339 339 340 341 341 338 338 340 342 341 340 341 342 343 343 344 342 341 341 341 341 341 342 343 349 350 350 349 349 349 350 350 349 347 346 345 345 345 348 349 345 347 343 342 340 342 346 346 342 339 342 341 343 346 347 347 347 348 347 346 345 344
338 339 339 339 342 341 340 339 340 340 339 340 340 339 339 341 342 339 341 342 340 340 342 343 348 350 350 349 349 348 350 349 348 348 347 346 346 345 348 348 348 345 346 341 339 341 345 342 336 333 332 330 334 340 345 345 346 345 347 346 346 344
339 337 337 339 339 338 340 339 340 341 339 340 342 344 343 347 344 342 343 340 337 337 340 342 348 348 346 347 348 347 349 350 350 348 347 346 345 347 348 348 348 342 340 344 342 346 346 342 335 337 335 330 329 325 341 340 342 343 344 343 342 342
337 338 340 340 338 339 339 339 340 343 342 340 340 342 342 342 342 343 342 343 341 339 336 337 345 344 341 341 342 348 350 350 350 351 348 346 345 346 348 348 348 347 345 341 340 341 343 343 339 336 328 330 326 327 320 333 334 337 339 341 342 340
336 336 338 339 339 339 339 338 340 339 339 338 338 337 336 336 338 340 341 342 343 344 342 337 341 346 343 343 342 343 348 350 351 350 349 346 345 344 344 347 349 347 345 343 339 337 341 342 340 342 334 328 327 326 324 328 330 333 335 337 339 338
336 337 336 338 339 339 338 337 336 334 332 331 330 331 331 333 337 337 338 340 343 345 343 342 341 342 342 345 344 342 340 348 350 351 350 347 346 345 345 344 345 347 345 346 343 337 335 342 341 341 340 339 334 326 325 330 328 327 339 343 340 337
336 336 338 338 339 338 338 338 337 336 335 333 331 333 336 339 341 343 343 340 342 343 343 341 342 340 341 345 343 343 349 346 343 343 350 349 347 346 343 343 345 345 345 345 342 336 336 336 340 339 338 339 339 338 334 331 328 329 328 337 342 340
336 336 338 338 338 339 337 337 337 338 337 336 334 333 335 338 342 344 340 339 339 340 342 342 341 339 340 345 343 348 346 343 340 342 346 348 348 346 345 345 345 347 346 342 341 335 334 334 333 335 339 339 338 338 334 337 337 335 331 330 332 341
335 336 336 337 338 338 338 337 336 336 337 338 338 338 338 338 339 339 339 339 337 337 340 342 342 341 340 340 343 345 345 343 341 337 340 343 346 347 346 345 346 346 345 342 342 340 337 334 336 333 335 337 335 334 338 340 340 341 334 330 330 334
334 335 336 337 337 337 338 338 338 338 337 337 337 338 338 337 338 341 338 337 337 335 337 339 340 343 342 341 340 344 347 346 345 340 340 342 344 344 346 347 348 347 345 343 342 340 339 337 337 337 335 336 336 337 336 336 339 338 339 340 333 333
332 333 335 335 336 337 337 337 337 337 336 334 335 336 335 335 336 338 334 334 336 335 338 338 339 344 344 342 341 342 346 347 346 343 340 340 342 346 347 347 347 346 344 342 338 340 341 341 339 338 338 336 335 334 334 332 333 335 338 336 335 334
331 332 333 334 335 335 336 336 337 337 336 336 336 334 334 335 337 338 337 334 336 337 335 335 340 343 344 345 343 342 344 346 346 342 339 342 340 343 346 346 345 344 343 343 341 340 340 339 340 338 339 338 336 338 337 336 336 336 334 333 336 335
329 331 332 333 334 335 335 335 335 337 337 336 337 338 337 337 339 339 338 334 334 332 336 339 341 342 343 346 346 346 345 343 343 342 341 342 340 342 346 345 344 343 341 341 339 341 338 340 340 337 336 338 338 339 340 342 341 339 338 337 336 331
329 331 331 332 332 333 334 335 336 337 339 338 338 338 338 338 340 340 340 340 339 339 338 340 342 342 344 344 344 345 346 345 345 344 343 342 340 346 347 345 344 341 341 340 340 341 341 341 341 341 341 337 338 339 341 343 343 341 339 337 333 333
328 329 330 330 331 332 333 334 335 335 338 339 337 337 337 339 340 340 340 340 341 340 339 340 340 343 344 344 345 346 346 345 346 347 344 343 346 347 347 345 344 342 341 341 340 340 340 341 339 340 341 339 338 338 340 342 342 342 342 340 338 338
327 328 329 330 330 331 332 334 334 334 338 339 338 338 338 340 340 341 341 340 341 341 340 340 341 342 343 343 343 344 346 345 347 347 347 346 347 346 346 344 342 342 340 341 340 341 340 340 340 341 341 340 339 337 342 343 344 344 343 343 342 341
326 327 328 328 330 331 332 332 332 333 334 334 336 337 338 337 337 339 341 341 340 341 342 341 341 342 341 342 342 342 343 344 346 346 345 345 345 345 345 345 343 342 341 342 341 341 340 339 340 341 340 340 339 340 343 347 347 346 345 345 344 342
Wind_Speed
10 13 12 10 10 12 13 16 15 15 15 14 14 14 13 14 14 13 12 12 12 8 9 9 9 9 11 10 13 13 12 12 12 13 13 13 12 12 12 12 11 11 11 11 10 11 11 10 9 8 7 7 11 2 5 5 6 5 6 7 7 8
10 11 13 9 9 10 12 13 13 13 12 13 13 13 12 10 11 10 11 9 6 6 5 7 8 9 8 11 12 13 13 13 13 14 13 13 12 11 11 11 11 10 11 11 14 7 9 10 10 7 7 10 5 5 5 5 5 5 5 6 8 9
11 10 11 10 8 9 12 10 12 11 10 12 12 12 9 10 9 10 9 6 5 4 5 6 5 6 8 11 13 13 14 13 13 13 12 12 11 11 10 10 10 10 10 12 8 5 6 6 7 10 10 8 4 4 5 6 5 6 6 7 7 9
10 10 9 7 7 8 8 9 9 9 9 8 9 8 9 8 8 8 7 6 5 5 6 6 11 13 12 10 11 13 14 13 14 13 13 10 10 9 10 9 8 10 9 6 3 3 4 5 5 6 3 5 4 5 4 5 5 5 5 6 7 9
9 9 8 7 7 7 7 7 7 7 8 7 7 7 6 6 6 7 7 5 6 5 6 6 7 6 7 8 10 10 10 9 9 10 11 8 7 8 8 7 7 8 3 4 4 4 4 5 5 5 4 5 5 4 5 5 4 4 6 6 7 7
8 8 8 7 7 7 7 6 7 7 7 7 7 7 6 6 6 6 5 5 5 5 5 5 5 4 6 7 8 9 8 8 8 8 7 6 6 6 5 5 5 4 4 5 5 4 4 5 5 5 5 4 4 4 5 5 5 4 4 5 7 7
7 7 8 7 6 7 6 5 6 6 6 6 6 6 6 6 6 6 5 5 5 5 4 5 5 5 4 5 7 7 6 7 7 6 5 5 5 5 4 5 4 4 4 5 6 5 4 5 6 5 5 5 4 5 5 5 4 5 3 6 7 6
7 7 8 7 7 6 6 6 6 6 5 5 5 6 6 6 6 6 6 5 4 4 4 4 5 5 4 4 5 5 6 6 6 6 5 5 5 4 5 4 4 5 5 5 5 5 5 5 5 5 6 6 5 5 5 5 5 4 2 4 7 7
8 8 8 7 7 6 6 6 6 5 5 5 5 5 5 6 6 6 6 6 4 3 4 4 5 5 5 4 4 5 5 6 6 6 5 4 4 4 4 4 4 4 4 4 4 4 4 5 4 4 5 6 5 6 5 5 5 4 4 2 7 8
8 8 7 7 6 6 6 5 5 4 4 5 3 3 4 6 5 6 5 5 5 3 3 4 4 4 5 4 4 4 4 5 4 5 5 4 4 4 4 4 3 4 4 4 3 4 3 4 4 4 5 5 5 5 5 5 5 5 5 4 5 8
7 7 7 7 6 6 6 6 5 4 4 5 5 4 5 4 5 5 5 5 5 4 3 3 4 4 4 4 4 4 4 5 4 5 4 4 3 3 2 2 2 2 3 3 3 4 2 3 3 4 4 5 5 5 4 4 4 3 5 4 3 6
7 7 6 6 6 6 6 6 6 5 6 6 5 5 5 5 5 5 6 6 5 4 4 3 3 5 5 4 5 5 4 5 5 5 4 4 4 3 3 3 3 3 2 1 2 2 3 2 3 4 4 4 4 4 4 4 4 4 3 4 4 4
6 6 6 6 5 5 6 5 5 6 5 6 6 6 5 5 4 5 5 6 5 5 4 4 4 5 5 5 5 4 4 4 4 5 4 4 4 3 2 2 3 1 3 3 1 3 1 2 2 2 3 4 3 3 3 3 4 3 3 4 3 4
5 5 5 5 4 5 5 4 5 5 5 6 6 6 5 4 4 5 5 6 6 5 5 4 4 5 5 5 5 5 5 4 4 3 3 3 4 4 2 1 1 2 3 3 4 3 2 2 3 3 3 3 2 3 2 2 2 2 3 3 3 3
5 6 5 5 5 4 4 4 5 5 5 5 5 5 4 4 4 4 5 5 6 6 6 5 5 4 5 4 5 5 5 5 5 5 4 4 3 3 2 2 2 3 5 2 3 3 2 2 2 3 3 2 2 2 2 2 2 1 2 2 2 2
6 6 4 5 4 4 3 4 4 4 4 5 5 5 4 3 3 3 3 4 6 7 7 6 6 5 4 5 5 5 5 5 6 6 5 5 4 3 3 2 2 1 3 6 4 4 3 3 2 2 2 2 2 1 1 1 1 2 2 2 2 2
6 6 6 5 4 4 4 5 5 5 5 6 6 5 4 3 1 4 3 4 6 6 8 7 7 6 5 5 5 6 6 6 5 6 6 5 5 4 3 4 2 2 2 4 3 4 3 2 3 3 2 2 2 1 2 2 2 2 3 4 3 3
3 4 5 5 5 5 6 7 6 6 6 5 6 5 4 5 5 4 4 5 6 7 7 8 8 8 6 6 6 6 6 7 7 6 6 6 5 5 4 3 3 3 2 4 1 2 2 2 1 1 1 1 1 2 2 3 3 3 3 3 3 4
2 1 2 3 4 6 5 5 4 5 5 5 5 5 4 5 5 6 7 7 6 7 8 9 9 9 7 7 7 6 6 7 7 7 7 7 6 6 5 4 4 4 2 4 2 1 1 1 2 1 1 1 3 3 4 3 4 4 4 4 4 4
1 0 1 3 3 3 4 5 5 5 5 5 5 5 6 6 6 7 7 7 8 7 8 8 9 9 8 7 7 7 7 7 7 7 7 8 7 7 6 6 5 4 2 3 4 3 3 3 2 2 2 3 3 3 4 4 4 4 4 4 5 5
1 2 2 3 3 4 5 5 5 7 7 7 7 7 6 6 6 6 7 7 8 7 8 8 9 9 8 8 8 7 7 7 7 7 7 7 8 7 6 6 5 3 4 3 4 4 3 3 3 3 3 4 3 4 4 5 5 5 4 4 4 4
2 2 3 4 4 4 4 5 6 6 5 6 5 5 6 6 6 6 7 7 6 6 8 8 8 9 8 9 9 8 8 8 8 7 7 7 8 7 6 6 5 5 4 4 4 4 2 4 4 3 2 2 3 4 4 4 5 4 5 4 4 4
1 3 3 4 5 4 4 5 6 4 5 5 5 5 5 4 3 5 6 7 7 8 8 8 8 4 4 8 9 9 8 7 8 8 7 8 8 8 7 7 6 5 5 5 5 3 4 5 3 2 3 3 1 2 5 3 3 4 5 5 4 4
2 3 3 5 5 5 5 6 7 6 5 6 5 5 6 7 7 9 9 8 8 8 9 8 8 7 7 7 10 9 8 8 8 8 7 7 8 8 8 7 7 6 6 5 6 5 5 4 4 3 3 2 2 2 3 3 1 2 3 4 4 5
0 2 4 3 6 6 6 7 6 6 6 7 7 7 7 8 9 9 8 8 10 10 10 10 9 10 10 8 9 10 10 8 8 8 8 8 8 9 9 8 8 7 8 6 5 4 5 4 4 4 4 3 3 3 1 2 4 1 2 3 5 5
1 2 2 5 6 5 7 8 6 6 6 7 7 7 9 9 8 8 8 9 10 10 11 10 10 11 12 10 8 7 11 9 9 8 7 7 8 8 9 9 9 8 8 8 5 5 5 4 4 5 5 4 3 4 5 5 7 1 4 1 1 2
2 2 3 3 4 5 7 7 9 9 8 8 8 7 7 7 7 6 6 7 5 8 11 11 11 12 12 9 8 12 8 3 3 9 8 8 8 9 9 9 8 9 7 7 7 6 5 4 4 5 5 4 4 4 5 5 5 5 2 4 4 3
1 2 3 3 6 6 7 8 9 9 8 9 8 8 8 8 7 5 6 7 5 6 9 12 11 12 12 10 9 8 7 6 5 5 8 9 9 9 8 8 8 8 7 6 7 6 5 5 5 4 4 4 5 5 6 5 6 6 5 5 1 3
1 2 3 3 5 7 7 7 7 7 8 8 8 8 8 8 6 8 10 8 7 6 7 10 14 11 11 11 10 9 8 7 6 6 3 10 11 9 10 8 8 7 7 6 6 6 5 5 5 4 3 4 5 5 4 5 5 5 5 5 4 3
2 2 2 3 5 6 7 8 8 7 7 7 7 7 8 8 8 7 9 9 8 6 7 7 12 13 11 11 12 11 10 9 8 6 4 7 12 10 9 9 8 8 7 7 6 6 6 5 4 4 4 3 4 4 5 4 4 4 4 4 6 6
2 1 2 4 4 5 6 6 8 8 8 8 8 7 8 8 8 7 8 10 7 6 6 8 11 11 11 11 11 10 9 9 8 6 5 5 11 11 9 8 8 8 8 8 7 7 7 6 5 4 4 4 5 5 5 5 4 3 4 5 6 6
2 2 2 4 5 4 5 5 6 7 8 8 8 7 9 9 9 10 8 7 7 6 7 10 11 9 9 10 9 9 10 9 8 7 7 6 10 13 9 8 7 7 7 8 8 7 7 7 7 5 5 5 5 5 5 6 5 4 5 5 5 6
2 2 2 3 4 5 5 5 5 7 7 7 9 9 9 9 9 9 9 10 10 11 12 11 9 9 9 10 9 9 10 10 8 8 10 11 12 16 9 8 8 8 8 9 8 8 8 8 7 6 5 5 5 6 6 5 5 5 5 5 5 6
1 0 2 3 4 4 5 5 6 6 6 7 8 8 8 8 8 8 8 8 9 9 8 9 9 9 9 10 10 10 10 10 10 11 12 11 15 13 10 8 8 8 9 8 8 9 9 9 8 8 6 6 6 6 6 5 5 5 5 5 6 6
1 1 3 3 3 4 3 4 4 4 5 6 7 7 8 8 8 8 8 9 8 8 8 8 9 9 9 10 10 10 10 11 11 11 12 13 12 10 9 8 8 9 8 8 9 9 8 9 8 8 8 7 7 7 7 6 5 6 5 5 5 5
2 2 3 3 4 4 4 3 4 4 4 5 6 7 7 7 7 8 8 9 9 8 8 8 8 9 10 10 10 10 10 11 11 11 10 10 10 10 10 10 9 8 10 8 9 10 9 9 9 9 8 8 8 8 7 6 6 5 5 5 5 4
2 2 3 3 4 3 3 3 3 4 5 5 7 8 8 9 8 8 8 8 8 9 9 9 8 8 10 10 10 10 10 11 11 11 10 11 11 11 11 11 10 10 10 10 10 10 9 9 8 8 8 9 8 7 7 6 5 5 5 5 4 4
Wind_Direction
151 147 144 147 155 153 149 149 147 145 145 144 144 145 143 140 138 134 138 138 149 138 122 126 128 117 133 123 117 121 122 118 117 116 121 122 124 125 122 122 125 122 123 122 118 116 112 114 113 113 122 171 208 157 77 83 92 93 105 109 99 103
150 153 146 156 160 154 155 162 155 153 154 152 152 151 156 151 147 141 145 156 146 133 129 116 112 121 114 128 132 127 124 122 119 121 121 123 121 122 126 127 129 131 127 139 151 134 123 112 105 120 177 205 222 87 89 93 93 102 87 91 106 109
151 154 151 155 150 153 158 162 157 158 155 160 157 164 157 155 153 150 155 151 140 131 119 119 114 106 119 128 129 131 128 126 122 122 125 123 125 124 128 136 133 134 153 168 189 113 121 120 127 161 188 213 76 88 98 96 103 83 85 86 92 101
155 153 157 152 148 158 157 160 155 160 157 162 165 164 157 162 155 154 148 148 134 122 115 101 100 111 122 136 135 133 132 127 123 123 127 128 128 127 127 125 131 152 181 197 119 121 105 105 119 174 151 94 111 108 104 102 87 95 105 106 107 132
157 154 155 147 154 159 156 161 157 160 160 163 166 160 158 158 150 152 148 154 138 139 131 130 140 145 141 142 144 144 148 150 142 137 159 132 143 147 172 142 152 195 137 118 88 80 80 95 86 84 91 96 107 110 99 89 95 98 86 103 106 136
158 161 154 160 161 151 162 160 161 159 162 162 162 157 157 156 148 156 152 145 139 143 145 136 138 133 138 149 152 156 163 152 153 148 168 146 137 142 136 138 129 127 120 94 97 84 91 101 102 89 89 100 109 114 101 97 95 81 87 102 122 134
156 167 160 169 151 162 169 159 159 162 167 161 163 160 159 153 149 148 152 145 160 156 152 140 137 135 138 160 164 165 157 153 158 157 167 143 136 135 119 103 105 104 99 101 96 107 105 78 74 94 97 103 106 107 105 103 110 115 140 120 107 144
163 174 170 166 157 168 164 165 154 158 178 150 163 165 160 156 149 154 152 162 174 162 157 152 148 145 149 165 167 163 156 160 159 154 161 144 149 137 118 114 105 101 94 87 100 104 100 99 88 92 107 113 115 109 100 99 90 85 82 97 124 130
171 182 171 168 165 166 169 164 161 167 160 161 174 169 162 154 166 154 158 160 184 165 169 165 160 155 151 155 160 161 168 166 165 149 161 156 141 132 125 117 113 115 101 104 96 90 95 100 112 98 106 109 103 103 102 105 109 129 107 117 122 123
183 183 174 174 166 166 168 158 157 157 144 172 176 169 172 168 166 159 158 167 163 175 179 174 167 165 155 147 160 164 179 166 169 145 168 162 144 147 132 128 137 117 108 94 96 92 105 115 105 115 103 104 99 96 107 120 139 123 129 123 108 136
195 191 178 182 170 165 167 168 162 168 161 190 174 178 196 183 165 167 159 166 164 173 179 176 179 176 159 164 167 176 177 164 170 162 174 162 160 149 132 119 91 76 81 95 94 114 121 114 124 115 104 107 101 104 113 107 93 104 113 121 111 143
198 194 193 187 173 167 177 182 174 178 186 165 174 202 201 190 165 171 157 168 169 170 185 159 197 191 173 179 182 184 171 173 169 166 184 154 169 152 160 132 106 113 80 68 107 96 106 139 125 116 123 107 109 105 105 111 120 124 102 103 134 127
203 196 198 197 184 180 183 191 179 182 181 170 186 202 205 201 176 161 164 169 169 174 185 170 182 213 191 186 191 194 189 182 181 173 173 174 149 155 155 144 158 150 158 128 161 120 142 130 138 114 109 111 119 115 109 121 116 129 133 129 140 146
206 200 211 203 199 197 186 193 189 188 179 184 193 199 203 199 188 167 169 169 170 176 198 177 184 194 208 197 196 203 202 194 198 183 169 182 178 175 180 186 122 157 55 245 150 134 150 150 131 142 131 112 120 113 129 125 131 128 146 150 146 161
196 204 187 227 207 207 194 203 189 197 187 196 191 206 200 193 195 185 178 172 177 178 203 193 196 194 203 205 203 205 210 204 197 189 193 193 209 177 187 206 186 176 160 251 158 139 154 143 140 139 129 145 138 137 142 138 153 198 158 182 189 170
195 206 197 209 217 222 205 208 204 206 193 195 204 207 192 205 206 203 206 182 186 183 197 196 206 200 202 209 206 210 211 215 196 196 203 188 209 193 187 209 173 285 155 212 165 153 184 139 168 134 139 161 132 169 192 183 210 215 212 221 207 204
220 211 205 205 213 217 215 210 212 205 205 197 205 198 186 175 203 239 219 221 195 195 196 195 204 209 211 214 213 210 206 214 203 205 199 199 202 206 192 187 195 236 332 315 196 158 153 156 163 172 170 170 159 173 224 223 222 238 223 227 235 224
229 223 216 211 207 216 219 219 206 206 210 212 213 207 193 189 202 239 251 233 212 203 202 199 202 205 212 217 219 214 206 198 205 210 209 206 208 203 187 207 201 187 220 241 211 146 171 186 184 157 172 183 215 237 229 232 239 251 252 241 234 233
326 303 230 218 222 220 226 234 218 214 209 220 224 211 214 212 204 209 223 238 235 218 210 207 204 207 210 213 217 221 219 200 204 204 208 210 206 207 191 187 205 185 188 261 305 169 268 216 198 217 249 220 232 232 257 249 257 254 260 268 270 262
274 29 258 211 211 261 232 230 214 213 213 209 217 213 207 217 224 215 213 221 229 228 221 211 210 207 210 216 217 217 216 212 207 207 208 213 210 203 192 188 194 214 192 219 226 242 205 230 218 227 237 254 254 260 254 259 251 260 266 262 252 244
354 301 254 221 209 200 221 220 231 224 217 208 213 208 204 210 225 233 233 229 228 223 229 221 215 210 210 213 222 216 215 216 210 213 212 216 213 213 190 197 195 187 214 212 226 210 242 265 261 233 229 246 243 234 244 244 246 245 247 248 244 245
186 244 257 253 229 217 215 232 227 227 232 232 232 231 226 216 219 241 233 245 250 238 228 225 219 215 212 217 215 214 215 216 213 210 214 217 211 204 195 194 192 190 207 226 214 221 232 259 231 262 277 256 236 198 200 217 228 229 235 238 246 252
191 209 220 241 258 241 221 219 229 223 232 241 250 261 264 260 254 253 248 230 234 243 241 228 217 203 269 238 226 224 217 213 212 211 206 212 211 199 198 194 192 209 189 199 223 185 212 250 287 269 262 268 232 259 158 201 208 225 231 251 258 256
234 250 232 206 222 240 238 225 232 237 232 239 246 254 263 260 245 239 242 243 233 229 232 233 217 184 197 223 251 251 224 215 209 212 210 209 206 205 197 196 195 201 212 203 206 194 199 223 265 288 253 270 291 283 207 157 277 261 233 226 248 251
170 242 255 251 234 224 218 220 226 229 232 244 247 249 256 252 242 242 247 250 245 235 229 227 223 200 220 212 230 235 240 217 214 210 211 210 208 211 206 197 195 199 205 217 212 190 191 205 231 256 287 284 271 227 29 331 325 230 169 232 209 209
276 224 224 232 243 240 230 226 213 216 217 223 239 235 234 238 237 235 231 236 248 242 232 226 220 215 213 199 207 222 243 239 218 213 214 215 215 211 213 205 191 203 204 210 234 209 198 182 237 234 250 283 289 318 318 328 299 134 222 17 251 270
322 292 243 226 225 228 241 240 230 228 227 226 228 233 235 239 245 241 242 252 263 281 265 236 226 223 218 194 207 217 216 214 279 270 221 218 214 214 209 211 193 198 206 200 210 224 219 198 199 234 236 247 273 265 272 294 309 314 263 193 213 215
303 292 281 241 223 223 229 229 232 228 230 235 235 245 235 241 237 236 241 247 242 236 243 262 244 233 221 202 207 217 214 196 185 243 270 222 217 209 217 209 202 201 200 211 203 222 219 230 234 224 207 242 239 255 269 265 262 293 304 310 322 201
267 278 275 253 248 237 240 243 242 234 225 230 235 240 243 244 236 237 240 235 227 228 240 246 257 240 234 219 202 213 215 191 186 212 222 266 225 211 213 213 195 201 202 206 213 218 235 239 239 252 227 222 243 247 231 218 244 249 289 308 288 266
42 298 293 280 266 254 239 240 240 237 232 238 229 233 241 240 237 224 236 235 224 221 222 226 245 245 231 229 225 214 208 196 193 192 195 259 271 222 212 210 201 204 205 211 211 219 227 235 239 254 254 269 247 244 253 255 240 257 263 265 287 301
46 353 318 297 279 267 265 245 240 234 235 237 240 235 237 234 239 235 236 237 227 231 235 230 232 234 230 228 224 224 216 205 207 177 177 215 271 242 210 211 204 205 211 215 215 216 219 230 245 246 251 250 257 258 275 278 282 271 269 279 287 290
73 26 328 314 293 273 259 250 248 243 234 232 236 232 230 234 232 232 228 241 230 230 240 241 234 231 230 225 225 222 221 214 194 174 185 199 239 242 218 209 204 206 213 218 224 224 222 226 226 237 241 252 255 268 272 270 274 275 275 276 282 290
55 41 345 290 293 294 274 262 243 239 238 234 235 230 239 239 235 234 225 226 236 232 229 227 225 227 228 224 224 221 215 215 206 186 194 199 226 240 219 211 210 208 216 221 221 224 225 223 223 230 241 242 252 261 261 264 270 273 266 265 267 276
73 141 285 279 275 268 269 256 249 236 243 244 242 245 242 236 235 236 234 233 232 234 235 231 227 229 229 224 223 225 224 220 216 201 201 195 227 223 216 215 211 214 217 222 225 223 226 227 227 231 242 252 255 255 261 264 267 262 261 258 256 262
306 279 268 280 278 281 278 275 269 257 247 240 243 242 242 243 242 238 238 241 242 238 239 238 235 231 231 231 229 224 223 225 222 216 205 210 219 220 212 215 224 218 219 224 224 225 226 227 228 231 235 245 256 257 255 257 257 262 261 254 260 271
324 312 293 288 292 297 301 302 297 277 255 255 255 253 248 245 244 246 245 243 247 244 237 237 236 235 231 231 229 228 224 225 226 222 220 215 213 218 217 214 219 225 226 222 229 226 229 230 234 239 243 245 248 252 251 249 249 251 259 261 260 261
275 270 279 294 293 291 295 292 294 294 290 280 269 260 257 251 245 244 248 248 247 247 244 237 234 231 235 231 230 230 229 226 224 223 219 220 216 217 219 218 218 221 227 228 230 231 230 233 234 232 235 237 241 245 241 240 243 245 245 250 252 263